XE2WR-3 Weather Reports


time (UTC)temp
F
wind
direction
speed
knots
gust
knots
rain 1hr
in
rain 24hr
in
rain mn
in
humidity
%
barometer
mb
20260502183101 66 76 2.6 4.3 0.00 0.08 0.04 75 1020.0
20260502181558 64 93 0.9 4.3 0.00 0.08 0.04 79 1020.3
20260502163049 61 88 0.9 3.5 0.00 0.08 0.04 82 1020.3
20260502161539 61 63 1.7 3.5 0.00 0.08 0.04 82 1020.3
20260502151532 60 72 1.7 4.3 0.00 0.08 0.04 82 1019.7
20260502123012 59 61 1.7 3.5 0.00 0.12 0.04 74 1017.9
20260502121512 60 56 1.7 5.2 0.00 0.12 0.04 75 1017.7
20260502114511 59 53 0.0 1.7 0.00 0.14 0.04 70 1017.1
20260502113003 59 53 0.0 0.9 0.00 0.14 0.04 69 1016.8
20260502111501 59 54 0.0 1.7 0.00 0.14 0.04 72 1016.7
20260502110103 59 53 0.0 3.5 0.00 0.14 0.04 75 1016.6
20260502104557 60 37 2.6 5.2 0.00 0.14 0.04 76 1016.3
20260502103101 61 65 1.7 3.5 0.00 0.14 0.04 65 1016.2
20260502101624 61 72 0.9 2.6 0.00 0.14 0.04 65 1016.0
20260502100117 61 72 1.7 3.5 0.00 0.14 0.04 62 1016.0
20260502090150 61 81 0.9 2.6 0.00 0.14 0.04 65 1015.7
20260502070047 62 81 0.0 2.6 0.02 0.12 0.02 74 1016.4
20260502064530 64 101 1.7 6.1 0.01 0.11 0.01 81 1016.1
20260502063031 64 103 2.6 4.3 0.00 0.10 0.00 82 1016.0
20260502061526 64 153 1.7 5.2 0.00 0.10 0.00 82 1015.8
20260502060024 65 82 4.3 7.0 0.00 0.10 0.00 82 1015.7
20260502054523 64 207 1.7 4.3 0.00 0.10 0.10 82 1015.6
20260502053022 64 231 2.6 5.2 0.01 0.10 0.10 81 1015.5
20260502051525 64 221 1.7 7.0 0.02 0.10 0.10 82 1015.3
20260502050018 63 82 0.9 7.8 0.02 0.10 0.10 82 1015.3
20260502044518 63 151 4.3 8.7 0.02 0.09 0.09 81 1015.1
20260502043015 64 77 4.3 7.8 0.02 0.09 0.09 82 1014.9
20260502041511 64 102 3.5 7.0 0.02 0.09 0.09 80 1014.5
20260502040009 64 197 4.3 8.7 0.02 0.09 0.09 78 1014.3
20260502034505 64 98 0.9 6.1 0.01 0.07 0.07 79 1014.1
20260502033002 65 98 2.6 6.1 0.00 0.06 0.06 81 1013.8
20260502031602 65 75 0.9 6.1 0.00 0.06 0.06 81 1013.3
20260502030100 65 77 0.0 5.2 0.00 0.06 0.06 82 1012.9
20260502024552 65 169 0.0 7.8 0.00 0.06 0.06 82 1012.7
20260502023107 66 145 1.7 4.3 0.00 0.06 0.06 82 1012.4
20260502021549 66 59 1.7 4.3 0.00 0.06 0.06 82 1012.1
20260502020049 66 110 0.9 7.0 0.00 0.06 0.06 82 1011.6
20260502014542 66 112 3.5 7.0 0.00 0.06 0.06 82 1011.2
20260502013040 66 66 1.7 7.0 0.00 0.06 0.06 82 1011.0
20260502011541 67 105 1.7 8.7 0.00 0.06 0.06 82 1010.5
20260502010032 67 63 4.3 9.6 0.00 0.06 0.06 82 1010.2
20260502004529 68 32 0.9 7.0 0.00 0.06 0.06 81 1009.9
20260502003028 68 41 6.1 10.4 0.00 0.06 0.06 81 1009.6
20260502001523 69 60 4.3 10.4 0.00 0.06 0.06 80 1009.4
20260502000021 70 15 5.2 12.2 0.00 0.06 0.06 79 1009.1
20260501234521 71 25 3.5 9.6 0.00 0.06 0.06 77 1008.7
20260501233020 72 19 4.3 12.2 0.00 0.06 0.06 77 1008.5
20260501231522 74 20 6.1 9.6 0.00 0.06 0.06 75 1008.0
20260501230018 75 57 6.1 12.2 0.00 0.06 0.06 74 1007.8
20260501224517 76 25 2.6 8.7 0.00 0.06 0.06 72 1007.3
20260501223020 77 56 1.7 7.8 0.00 0.06 0.06 72 1007.0
20260501221518 77 107 2.6 7.0 0.00 0.06 0.06 72 1006.8
20260501220020 77 115 3.5 7.8 0.00 0.06 0.06 72 1006.6
20260501214515 77 101 3.5 7.0 0.00 0.06 0.06 72 1006.5
20260501213014 77 58 5.2 8.7 0.00 0.06 0.06 71 1006.5
20260501211514 77 58 2.6 7.0 0.00 0.06 0.06 71 1006.5
20260501210015 78 65 4.3 7.0 0.00 0.06 0.06 71 1006.4
20260501204511 79 107 4.3 7.8 0.00 0.06 0.06 70 1006.4
20260501203028 79 146 3.5 6.1 0.00 0.06 0.06 70 1006.5
20260501201509 79 60 2.6 9.6 0.00 0.06 0.06 71 1006.5
20260501200010 79 104 3.5 7.8 0.00 0.06 0.06 72 1006.9
20260501194502 78 177 1.7 4.3 0.00 0.06 0.06 74 1007.1
20260501193101 76 142 0.9 4.3 0.00 0.06 0.06 77 1007.4
20260501191600 75 207 1.7 4.3 0.00 0.06 0.06 78 1007.6
20260501190100 75 214 1.7 5.2 0.00 0.06 0.06 79 1007.7
20260501184609 75 79 0.9 3.5 0.00 0.06 0.06 80 1008.0